This is the latest recevied weather packets stored in our database for station/object WD7CGF. If no packets are shown the sender has not sent any weather packets the latest 10 day(s).
| Time | Temp. | Humidity | Pressure | Rain* | Wind** | Luminosity | Snow |
|---|---|---|---|---|---|---|---|
| 1777050506 | 12.78° C | 49% | 1018.1 hPa | 0 mm | - | - | - |
| 1777049897 | 12.78° C | 55% | 1018.5 hPa | 0 mm | - | - | - |
| 1777049302 | 12.22° C | 60% | 1018.5 hPa | 0 mm | - | - | - |
| 1777048705 | 11.67° C | 63% | 1018.8 hPa | 0 mm | - | - | - |
| 1777048090 | 11.67° C | 63% | 1019 hPa | 0 mm | - | - | - |
| 1777047495 | 11.67° C | 63% | 1019 hPa | 0 mm | - | - | - |
| 1777046891 | 11.11° C | 67% | 1019.3 hPa | 0 mm | - | - | - |
| 1777046306 | 10.56° C | 66% | 1019.5 hPa | 0 mm | - | - | - |
| 1777045690 | 10° C | 69% | 1019.5 hPa | 0 mm | - | - | - |
| 1777044505 | 8.89° C | 72% | 1019 hPa | 0 mm | - | - | - |
| 1777043898 | 8.33° C | 75% | 1019 hPa | 0 mm | - | - | - |
| 1777043306 | 7.78° C | 74% | 1019 hPa | 0 mm | - | - | - |
| 1777042691 | 7.78° C | 74% | 1019.1 hPa | 0 mm | - | - | - |
| 1777042102 | 7.22° C | 78% | 1019.1 hPa | 0 mm | - | - | - |
| 1777041497 | 6.67° C | 79% | 1019.4 hPa | 0 mm | - | - | - |
| 1777040906 | 5.56° C | 83% | 1019.4 hPa | 0 mm | - | - | - |
| 1777040309 | 4.44° C | 86% | 1019.4 hPa | 0 mm | - | - | - |
| 1777039692 | 3.89° C | 88% | 1019.6 hPa | 0 mm | - | - | - |
| 1777039100 | 2.78° C | 88% | 1019.5 hPa | 0 mm | - | - | - |
| 1777038505 | 2.78° C | 87% | 1019.5 hPa | 0 mm | - | - | - |
| 1777037912 | 3.33° C | 87% | 1019.4 hPa | 0 mm | - | - | - |
| 1777037295 | 3.33° C | 86% | 1019.4 hPa | 0 mm | - | - | - |
| 1777036699 | 3.89° C | 86% | 1019.4 hPa | 0 mm | - | - | - |
| 1777036087 | 3.89° C | 86% | 1019.2 hPa | 0 mm | - | - | - |
| 1777035499 | 4.44° C | 86% | 1019.1 hPa | 0 mm | - | - | - |
* Rain since midnight (hover to see other rain measurements)
** Current wind speed in m/s (hover to see current wind gust speed)